{"data":{"norad_id":45863,"epoch":"2026-09-19T20:41:38.647968Z","epoch_age_seconds":77066,"freshness":"FRESH","line1":"1 45863U 20045A   26262.86225287 -.00000321  00000+0  00000+0 0  9990","line2":"2 45863   0.0405 104.3155 0002400 342.4754 356.4349  1.00273112 22804","mean_motion":1.00273112,"eccentricity":0.00024,"inclination_deg":0.0405,"raan_deg":104.3155,"arg_perigee_deg":342.4754,"mean_anomaly_deg":356.4349,"bstar":0,"rev_number":2280,"period_min":1436.0778989287,"perigee_km":35776.103512632,"apogee_km":35796.342405412,"semimajor_km":42164.359959022,"source":"CELESTRAK","updated_at":"2026-09-20T09:00:35.294014Z"}}